PTP Alzenau

Punkttermin-Prognose für Alzenau
Modell: MOSMIX (Deutscher Wetterdienst)
Modelllaufzeit: 06 UTC
Aktualisierung: stündlich
Mittwoch - 17.07.2019
| Wetter - | Temperaturen | Wind | Niederschlag | Druck | Sonne
Zeit GZ | Bewölkung | TT MAX MIN TG TM | DD FF FX1 | RR1 RR24 | PPPP | SS1 SS24
02:00 Uhr | --- | --- --- --- --- --- | --- --- --- | --- | --- | ---
03:00 Uhr | --- | --- --- --- --- --- | --- --- --- | --- | --- | ---
04:00 Uhr | --- | --- --- --- --- --- | --- --- --- | --- | --- | ---
05:00 Uhr | --- | --- --- --- --- --- | --- --- --- | --- | --- | ---
06:00 Uhr | --- | --- --- --- --- --- | --- --- --- | --- | --- | ---
07:00 Uhr | --- | --- --- --- --- --- | --- --- --- | --- | --- | ---
08:00 Uhr | --- | --- --- --- --- --- | --- --- --- | --- | --- | ---
09:00 Uhr | wolkig | 18 --- --- 20 --- | NO 7 --- | 0.0 | 1015 | 0.5
10:00 Uhr | wolkig | 19 --- --- 23 --- | NO 7 --- | 0.0 | 1015 | 0.6
11:00 Uhr | wolkig | 21 --- --- 25 --- | NO 7 --- | 0.0 | 1015 | 0.6
12:00 Uhr | wolkig | 22 --- --- 27 --- | N 9 --- | 0.0 | 1015 | 0.6
13:00 Uhr | wolkig | 23 --- --- 28 --- | N 9 --- | 0.0 | 1014 | 0.6
14:00 Uhr | wolkig | 24 --- --- 29 --- | N 9 --- | 0.0 | 1014 | 0.7
15:00 Uhr | wolkig | 24 --- --- 29 --- | N 9 --- | 0.0 | 1013 | 0.6
16:00 Uhr | wolkig | 25 --- --- 29 --- | NW 9 --- | 0.0 | 1013 | 0.7
17:00 Uhr | leicht bewölkt | 25 --- --- 29 --- | N 9 --- | 0.0 | 1013 | 0.7
18:00 Uhr | leicht bewölkt | 25 --- --- 28 --- | N 9 --- | 0.0 | 1012 | 0.7
19:00 Uhr | leicht bewölkt | 24 --- --- 26 --- | N 9 --- | 0.0 | 1012 | 0.7
20:00 Uhr | leicht bewölkt | 24 26 --- 24 --- | NO 9 --- | 0.0 | 1012 | 0.6
21:00 Uhr | leicht bewölkt | 22 --- --- 22 --- | NO 9 --- | 0.0 | 1012 | 0.4
22:00 Uhr | leicht bewölkt | 21 --- --- 19 --- | NO 7 --- | 0.0 | 1012 | 0.2
23:00 Uhr | leicht bewölkt | 19 --- --- 18 --- | NO 7 --- | 0.0 | 1012 | 0.0
00:00 Uhr | leicht bewölkt | 18 --- --- 16 --- | NO 7 --- | 0.0 | 1013 | 0.0
Donnerstag - 18.07.2019
| Wetter - | Temperaturen | Wind | Niederschlag | Druck | Sonne
Zeit GZ | Bewölkung | TT MAX MIN TG TM | DD FF FX1 | RR1 RR24 | PPPP | SS1 SS24
01:00 Uhr | leicht bewölkt | 17 --- --- 15 --- | NO 7 --- | 0.0 | 1013 | 0.0
02:00 Uhr | leicht bewölkt | 16 --- --- 15 --- | NO 7 --- | 0.0 | 1013 | 0.0
03:00 Uhr | leicht bewölkt | 16 --- --- 14 --- | NO 7 --- | 0.0 | 1013 | 0.0
04:00 Uhr | leicht bewölkt | 16 --- --- 14 --- | NO 7 --- | 0.0 | 1012 | 0.0
05:00 Uhr | wolkig | 16 --- --- 14 --- | NO 6 --- | 0.0 | 1012 | 0.0
06:00 Uhr | wolkig | 16 --- --- 15 --- | NO 7 --- | 0.0 | 1012 | 0.1
07:00 Uhr | wolkig | 16 --- --- 16 --- | NO 7 --- | 0.0 | 1012 | 0.2
08:00 Uhr | wolkig | 17 --- 15 19 --- | NO 7 --- | 0.0 | 1013 | 0.4
09:00 Uhr | wolkig | 19 --- --- 21 --- | NO 7 --- | 0.0 | 1012 | 0.5
10:00 Uhr | wolkig | 20 --- --- 24 --- | NO 7 --- | 0.0 | 1012 | 0.6
11:00 Uhr | wolkig | 22 --- --- 26 --- | S 7 --- | 0.0 | 1012 | 0.6
12:00 Uhr | wolkig | 23 --- --- 28 --- | SW 7 --- | 0.0 | 1012 | 0.6
13:00 Uhr | wolkig | 24 --- --- 30 --- | SW 9 --- | 0.0 | 1012 | 0.6
14:00 Uhr | wolkig | 26 --- --- 31 --- | SW 11 --- | 0.0 | 1012 | 0.6
15:00 Uhr | wolkig | 26 --- --- 31 --- | SW 11 --- | 0.0 | 1012 | 0.6
16:00 Uhr | wolkig | 27 --- --- 31 --- | SW 13 --- | 0.0 | 1011 | 0.5
17:00 Uhr | wolkig | 27 --- --- 30 --- | SW 11 --- | 0.0 | 1011 | 0.5
18:00 Uhr | wolkig | 26 --- --- 29 --- | SW 11 --- | 0.0 | 1011 | 0.4
19:00 Uhr | wolkig | 26 --- --- 27 --- | SW 11 --- | 0.0 | 1011 | 0.4
20:00 Uhr | wolkig | 25 28 --- 24 --- | SW 9 --- | 0.0 | 1011 | 0.3
21:00 Uhr | wolkig | 23 --- --- 22 --- | SW 9 --- | 0.0 | 1011 | 0.1
22:00 Uhr | wolkig | 22 --- --- 21 --- | S 9 --- | 0.0 | 1012 | 0.1
23:00 Uhr | wolkig | 20 --- --- 19 | S 7 --- | 0.0 | 1012 | 0.0
00:00 Uhr | wolkig | 20 --- --- 18 21 | S 7 --- | 0.0 0.0 | 1013 | 0.0 7.0
Freitag - 19.07.2019
| Wetter - | Temperaturen | Wind | Niederschlag | Druck | Sonne
Zeit GZ | Bewölkung | TT MAX MIN TG TM | DD FF FX1 | RR1 RR24 | PPPP | SS1 SS24
01:00 Uhr | wolkig | 19 --- --- 18 --- | S 7 --- | 0.0 | 1013 | 0.0
02:00 Uhr | wolkig | 18 --- --- 17 --- | S 6 --- | 0.0 | 1013 | 0.0
03:00 Uhr | wolkig | 17 --- --- 17 --- | S 6 --- | 0.0 | 1014 | 0.0
04:00 Uhr | wolkig | 17 --- --- 16 --- | S 6 --- | 0.0 | 1014 | 0.0
05:00 Uhr | wolkig | 17 --- --- 16 --- | S 6 --- | 0.0 | 1014 | 0.0
06:00 Uhr | wolkig | 17 --- --- 17 --- | S 7 --- | 0.0 | 1015 | 0.1
07:00 Uhr | wolkig | 17 --- --- 18 --- | S 7 --- | 0.0 | 1015 | 0.1
08:00 Uhr | wolkig | 18 --- 16 20 --- | S 7 --- | 0.0 | 1015 | 0.3
09:00 Uhr | wolkig | 20 --- --- 22 --- | SW 9 --- | 0.0 | 1015 | 0.4
10:00 Uhr | wolkig | 21 --- --- 24 --- | SW 9 --- | 0.0 | 1016 | 0.5
11:00 Uhr | wolkig | 22 --- --- 26 --- | SW 11 --- | 0.0 | 1016 | 0.5
12:00 Uhr | wolkig | 24 --- --- 28 --- | SW 13 --- | 0.0 | 1016 | 0.6
13:00 Uhr | wolkig | 24 --- --- 30 --- | SW 13 --- | 0.0 | 1015 | 0.6
14:00 Uhr | wolkig | 25 --- --- 30 --- | SW 15 --- | 0.0 | 1015 | 0.6
15:00 Uhr | wolkig | 26 --- --- 30 --- | SW 15 --- | 0.0 | 1015 | 0.5
16:00 Uhr | wolkig | 26 --- --- 30 --- | SW 15 --- | 0.0 | 1015 | 0.5
17:00 Uhr | wolkig | 26 --- --- 30 --- | SW 15 --- | 0.0 | 1014 | 0.5
18:00 Uhr | wolkig | 26 --- --- 29 --- | SW 15 --- | 0.0 | 1014 | 0.5
19:00 Uhr | wolkig | 26 --- --- 27 --- | SW 13 --- | 0.0 | 1014 | 0.4
20:00 Uhr | wolkig | 25 28 --- 25 --- | SW 13 --- | 0.0 | 1014 | 0.4
21:00 Uhr | wolkig | 24 --- --- 23 --- | SW 9 --- | 0.0 | 1014 | 0.2
22:00 Uhr | wolkig | 23 --- --- 21 --- | S 9 --- | 0.0 | 1014 | 0.1
23:00 Uhr | wolkig | 22 --- --- 20 | SO 7 --- | 0.0 | 1014 | 0.0
00:00 Uhr | wolkig | 20 --- --- 19 22 | O 7 --- | 0.0 0.0 | 1014 | 0.0 6.6
Samstag - 20.07.2019
| Wetter - | Temperaturen | Wind | Niederschlag | Druck | Sonne
Zeit GZ | Bewölkung | TT MAX MIN TG TM | DD FF FX3 | RR3 RR24 | PPPP | SS3 SS24
02:00 Uhr | wolkig | 18 --- --- 17 --- | O 6 --- | 0.0 | 1014 | 0.0
05:00 Uhr | wolkig | 17 --- --- 17 --- | O 6 --- | 0.0 | 1014 | 0.0
08:00 Uhr | wolkig | 20 --- 16 21 --- | O 7 --- | 0.0 | 1014 | 0.6
11:00 Uhr | wolkig | 25 --- --- 28 --- | S 11 --- | 0.0 | 1014 | 1.7
14:00 Uhr | wolkig | 29 --- --- 33 --- | SW 17 --- | 0.0 | 1013 | 2.0
17:00 Uhr | wolkig | 29 --- --- 31 --- | SW 17 41 | 0.0 | 1012 | 1.8
20:00 Uhr | wolkig | 27 31 --- 27 --- | SW 15 --- | 0.0 | 1013 | 1.3
23:00 Uhr | wolkig | 23 --- --- 21 24 | SW 9 --- | 0.0 0.0 | 1014 | 0.3 7.7
Sonntag - 21.07.2019
| Wetter - | Temperaturen | Wind | Niederschlag | Druck | Sonne
Zeit GZ | Bewölkung | TT MAX MIN TG TM | DD FF FX3 | RR3 RR24 | PPPP | SS3 SS24
02:00 Uhr | wolkig | 20 --- --- 19 --- | S 7 --- | 0.0 | 1015 | 0.0
05:00 Uhr | wolkig | 19 --- --- 18 --- | S 6 --- | 0.0 | 1016 | 0.0
08:00 Uhr | wolkig | 20 --- 18 21 --- | SW 9 --- | 0.0 | 1017 | 0.6
11:00 Uhr | wolkig | 24 --- --- 28 --- | SW 11 --- | 0.0 | 1018 | 1.6
14:00 Uhr | wolkig | 27 --- --- 32 --- | SW 17 --- | 0.0 | 1018 | 1.9
17:00 Uhr | wolkig | 28 --- --- 31 --- | W 17 --- | 0.0 | 1018 | 1.8
20:00 Uhr | wolkig | 27 30 --- 26 --- | W 13 --- | 0.0 | 1018 | 1.6
23:00 Uhr | wolkig | 22 --- --- 21 23 | N 9 --- | 0.0 0.0 | 1019 | 0.5 7.9
Montag - 22.07.2019
| Wetter - | Temperaturen | Wind | Niederschlag | Druck | Sonne
Zeit GZ | Bewölkung | TT MAX MIN TG TM | DD FF FX3 | RR3 RR24 | PPPP | SS3 SS24
02:00 Uhr | leicht bewölkt | 19 --- --- 18 --- | NO 7 --- | 0.0 | 1020 | 0.0
05:00 Uhr | leicht bewölkt | 18 --- --- 17 --- | NO 7 --- | 0.0 | 1020 | 0.0
08:00 Uhr | leicht bewölkt | 20 --- 17 21 --- | NO 7 --- | 0.0 | 1021 | 0.9
11:00 Uhr | leicht bewölkt | 26 --- --- 30 --- | SW 9 --- | 0.0 | 1021 | 2.1
14:00 Uhr | leicht bewölkt | 29 --- --- 35 --- | SW 13 --- | 0.0 | 1020 | 2.3
17:00 Uhr | leicht bewölkt | 30 --- --- 33 --- | SW 15 --- | 0.0 | 1019 | 2.1
20:00 Uhr | leicht bewölkt | 29 32 --- 28 --- | W 13 --- | 0.0 | 1019 | 1.8
23:00 Uhr | leicht bewölkt | 24 --- --- 22 24 | NO 9 --- | 0.0 0.0 | 1019 | 0.5 9.8
Dienstag - 23.07.2019
| Wetter - | Temperaturen | Wind | Niederschlag | Druck | Sonne
Zeit GZ | Bewölkung | TT MAX MIN TG TM | DD FF FX3 | RR3 RR24 | PPPP | SS3 SS24
02:00 Uhr | leicht bewölkt | 21 --- --- 19 --- | NO 7 --- | 0.0 | 1019 | 0.0
05:00 Uhr | leicht bewölkt | 19 --- --- 18 --- | NO 7 --- | 0.0 | 1019 | 0.0
08:00 Uhr | leicht bewölkt | 21 --- 19 23 --- | NO 9 --- | 0.0 | 1019 | 1.0
11:00 Uhr | leicht bewölkt | 27 --- --- 31 --- | S 9 --- | 0.0 | 1019 | 2.4
14:00 Uhr | leicht bewölkt | 31 --- --- 37 --- | SW 13 --- | 0.0 | 1018 | 2.5
17:00 Uhr | leicht bewölkt | 33 --- --- 35 --- | SW 13 --- | 0.0 | 1016 | 2.5
20:00 Uhr | leicht bewölkt | 30 34 --- 30 --- | W 11 --- | 0.0 | 1016 | 2.1
23:00 Uhr | leicht bewölkt | 25 --- --- 23 26 | NO 9 --- | 0.0 0.0 | 1016 | 0.5 10.9
Mittwoch - 24.07.2019
| Wetter - | Temperaturen | Wind | Niederschlag | Druck | Sonne
Zeit GZ | Bewölkung | TT MAX MIN TG TM | DD FF FX3 | RR3 RR24 | PPPP | SS3 SS24
02:00 Uhr | leicht bewölkt | 22 --- --- 20 --- | NO 7 --- | 0.0 | 1017 | 0.0
05:00 Uhr | leicht bewölkt | 20 --- --- 19 --- | NO 7 --- | 0.0 | 1017 | 0.0
08:00 Uhr | leicht bewölkt | 22 --- 19 24 --- | NO 9 --- | 0.0 | 1017 | 0.9
11:00 Uhr | leicht bewölkt | 28 --- --- 33 --- | SW 11 --- | 0.0 | 1017 | 2.2
14:00 Uhr | leicht bewölkt | 32 --- --- 38 --- | SW 13 --- | 0.0 | 1016 | 2.5
17:00 Uhr | leicht bewölkt | 33 --- --- 38 --- | W 15 --- | 0.0 | 1015 | 2.3
20:00 Uhr | leicht bewölkt | 32 35 --- 31 --- | NW 11 --- | 0.0 | 1015 | 2.0
23:00 Uhr | leicht bewölkt | 26 --- --- 24 27 | N 9 --- | 0.0 0.0 | 1016 | 0.5 10.4
Donnerstag - 25.07.2019
| Wetter - | Temperaturen | Wind | Niederschlag | Druck | Sonne
Zeit GZ | Bewölkung | TT MAX MIN TG TM | DD FF FX3 | RR3 RR24 | PPPP | SS3 SS24
02:00 Uhr | leicht bewölkt | 23 --- --- 21 --- | N 7 --- | 0.0 | 1016 | 0.0
05:00 Uhr | leicht bewölkt | 21 --- --- 20 --- | NO 9 --- | 0.0 | 1016 | 0.0
08:00 Uhr | leicht bewölkt | 23 --- 20 24 --- | NO 9 --- | 0.0 | 1016 | 0.9
11:00 Uhr | leicht bewölkt | 28 --- --- 34 --- | W 13 --- | 0.0 | 1016 | 2.2
14:00 Uhr | leicht bewölkt | 32 --- --- 38 --- | SW 15 --- | 0.0 | 1015 | 2.4
17:00 Uhr | leicht bewölkt | 33 --- --- 37 --- | W 15 --- | 0.0 | 1014 | 2.2
20:00 Uhr | leicht bewölkt | 31 35 --- 31 --- | W 13 --- | 0.0 | 1014 | 1.9
23:00 Uhr | leicht bewölkt | 26 --- --- 24 27 | NW 9 --- | 0.0 0.0 | 1015 | 0.5 10.0
Freitag - 26.07.2019
| Wetter - | Temperaturen | Wind | Niederschlag | Druck | Sonne
Zeit GZ | Bewölkung | TT MAX MIN TG TM | DD FF FX3 | RR3 RR24 | PPPP | SS3 SS24
02:00 Uhr | leicht bewölkt | 22 --- --- 21 --- | N 7 --- | 0.0 | 1016 | 0.0
05:00 Uhr | leicht bewölkt | 21 --- --- 20 --- | O 7 --- | 0.0 | 1015 | 0.0
08:00 Uhr | leicht bewölkt | 22 --- 20 23 --- | S 9 --- | 0.0 | 1016 | 0.8
11:00 Uhr | leicht bewölkt | 27 --- --- 32 --- | SW 11 --- | 0.0 | 1016 | 2.0
14:00 Uhr | wolkig | 31 --- --- 37 --- | SW 15 --- | 0.0 | 1015 | 2.1
17:00 Uhr | wolkig | 32 --- --- 35 --- | SW 15 --- | 0.0 | 1014 | 2.0
20:00 Uhr | wolkig | 28 34 --- 30 --- | W 13 --- | 0.0 | 1014 | 1.7
23:00 Uhr | wolkig | 25 --- --- 24 26 | NW 9 --- | 0.0 0.0 | 1015 | 0.4 9.1
Samstag - 27.07.2019
| Wetter - | Temperaturen | Wind | Niederschlag | Druck | Sonne
Zeit GZ | Bewölkung | TT MAX MIN TG TM | DD FF FX3 | RR3 RR24 | PPPP | SS3 SS24
02:00 Uhr | leicht bewölkt | 22 --- --- 21 --- | NO 7 --- | 0.0 | 1015 | 0.0
05:00 Uhr | leicht bewölkt | 21 --- --- 19 --- | NO 7 --- | 0.0 | 1015 | 0.0
08:00 Uhr | wolkig | 20 --- 17 20 --- | SW 9 --- | 0.0 | 1015 | 0.7
---:00 Uhr | --- | --- --- --- --- --- | --- --- --- | --- | --- | ---
---:00 Uhr | --- | --- --- --- --- --- | --- --- --- | --- | --- | ---
---:00 Uhr | --- | --- --- --- --- --- | --- --- --- | --- | --- | ---
---:00 Uhr | --- | --- --- --- --- --- | --- --- --- | --- | --- | ---
---:00 Uhr | --- | --- --- --- --- --- | --- --- --- | --- --- | --- | ---


Wetter : Wetter/Bewölkung zum Termin (aktuelle Stunde) TT : Lufttemperatur in Grad Celsius zum Termin MAX : Maximum Lufttemperatur in Grad Celsius letzte 12 Stunden MIN : Minimum Lufttemperatur der vergangenen Nacht in Grad Celsius letzte 12 Stunden TG : Temperatur in 5cm überm Erdboden TM : Tagesmittel Lufttemperatur in Grad Celsius letzte 24 Stunden DD : Windrichtung zum Termin FF : Windgeschwindigkeit zum Termin FX1 : höchste Windspitze im Bezugszeitraum letzte 1 Stunde in km/h FX3 : höchste Windspitze im Bezugszeitraum letzte 3 Stunden in km/h PPPP : reduzierter Luftdruck auf Meereshöhe in hPa zum Termin RR1 : Niederschlagsmenge im Bezugszeitraum letzte 1 Stunde in mm = l/qm RR3 : Niederschlagsmenge im Bezugszeitraum letzte 3 Stunden in mm = l/qm RR24 : Niederschlagsmenge im Bezugszeitraum letzte 24 Stunden in mm = l/qm SS1 : Sonnenscheindauer letzte 1 Stunde SS3 : Sonnenscheindauer letzte 3 Stunden SS24 : Sonnenscheindauer letzte 24 Stunden --- : Wert nicht vorhanden